Showing default

WILDFIRE 7, 57761

Orbit data source: Space-Track

WILDFIRE 7, 57761 is a payload satellite owned by SDA (US) in LEO that was launched on Sat, 02 Sep 2023 UTC via an FALCON 9 launch vehicle from the Air Force Western Test Range (AFWTR). Payload-class satellites include a variety of spacecraft equipped with specific instruments for various scientific and technological missions. These include communications satellites like Starlink; space stations such as the ISS; scientific satellites like the Hubble; Earth observation satellites from companies like Planet Labs, Umbra, and HawkEye 360; GPS; miniature CubeSats for education and research; and military/defense satellites.

Loading next visibility...
Identifier
57761, 2023-133E
Orbit
LEO
Country
Flag of USUS
Related business
Manufacturer
TYVAK/LMSSD
Mission
Operational Defense Communications
Bus & Motor
MAVERICKS, Unknown motor
Mass
~300 kg wet, ~300 kg dry
Launch date (UTC)
2023-09-02 (2 years ago)
Launch vehicle
FALCON 9
Launch site
Air Force Western Test Range (AFWTR)
Object type
Payload
Rocket body
Debris
Shape & HBR
Box + 2 Pan, 1.3 m
Radar Cross Section
0.713 m², Large (>1 m²)

Expand to show TLE details & history
Last TLE update: 9 hours ago

TLE from 9 hours ago
0 WILDFIRE 7
1 57761U 23133E   25346.98612461  .00000180  00000-0  14972-3 0  9990
2 57761  80.9977 186.6221 0005491 170.6420 189.4840 13.85058098115214
Epoch: 2025-12-12T23:40Z
TLE epoch observation values (Epoch: 2025-12-12T23:40:01.166Z)
Latitude
0.00004°
Longitude
109.69737°
Altitude
952.826 km
Speed
7.373 km/s
True Right ascension
12h 26m 29s
True Declination
0° 00' 00"
Sunlit
Object was in daylight at epoch
Visualization orbit readout
Latitude
Unknown
Longitude
Unknown
Altitude
Unknown
Speed
Unknown
Apparent Right ascension
Unknown
Apparent Declination
Unknown
Sunlit
N/A
Visualization observer readout
Local Sidereal Time
07:32:42
Azimuth
Unknown
Elevation
Unknown
Doppler factor
Unknown
Orbital elements
Apogee altitude
947.241 km
Perigee altitude
939.2 km
Semi-major axis
7,321.357 km
Eccentricity
0.00055
Inclination
80.9977°
RAAN
186.6221°
Arg. of periapsis
170.642°
True anomaly
189.47364°
Mean anomaly
189.484°
Eccentric anomaly
189.47882°
Mean motion
3.46462 °/min
Orbital period
103.91 mins
BSTAR
0.00014972
Loading maneuver chart data...
Computing Atmospheric mass density...
Loading historical data...
Loading historical data...
Loading historical data...
Loading historical data...
Loading historical data...
Loading historical data...
Loading historical data...

Documentation

Showing up to 5 results
|